Location: Powder Track
(41.8531°N, 72.3584°W)
Time: 05:30:23
(UTC+00:00)

Vanguard 2 Rocket - All Passes

Search period start: 01 August 2021 00:00
Search period end: 11 August 2021 00:00
Orbit: 555 x 3325 km, 32.9° (Epoch: 31 July)

Date Brightness Start Highest point End Pass type
(mag) Time Alt. Az. Time Alt. Az. Time Alt. Az.
01 Aug - 12:13:52 10° SSW 12:16:42 18° SSE 12:19:32 10° ESE daylight
01 Aug - 14:25:19 10° WSW 14:28:49 27° S 14:33:15 10° ESE daylight
01 Aug - 16:37:41 10° WSW 16:41:27 19° SSW 16:46:31 10° SSE daylight
02 Aug - 11:15:05 10° SSW 11:17:30 14° SSE 11:19:45 10° SE daylight
02 Aug - 13:26:21 10° SW 13:29:38 25° S 13:33:19 10° ESE daylight
02 Aug - 15:38:32 10° WSW 15:41:59 21° S 15:46:30 10° SE daylight
03 Aug - 10:16:30 10° S 10:18:12 12° SSE 10:19:45 10° SE daylight
03 Aug - 12:27:14 10° SW 12:30:29 23° S 12:33:41 10° ESE daylight
03 Aug - 14:39:26 10° WSW 14:42:40 22° S 14:46:38 10° SE daylight
03 Aug - 16:53:20 10° SW 16:55:23 12° SSW 16:57:45 10° S daylight
04 Aug - 11:27:57 10° SW 11:31:19 20° S 11:34:18 10° ESE daylight
04 Aug - 13:40:16 10° WSW 13:43:28 23° S 13:46:59 10° SE daylight
04 Aug - 15:53:26 10° SW 15:55:52 14° SSW 15:58:45 10° SSE daylight
05 Aug - 10:28:28 10° SSW 10:32:03 18° SSE 10:35:01 10° SE daylight
05 Aug - 12:40:56 10° WSW 12:44:19 24° S 12:47:36 10° SE daylight
05 Aug - 14:53:54 10° SW 14:56:31 16° SSW 14:59:32 10° SSE daylight
06 Aug - 09:28:53 10° SSW 09:32:40 16° SSE 09:35:42 10° SE daylight
06 Aug - 11:41:21 10° SW 11:45:09 25° S 11:48:25 10° ESE daylight
06 Aug - 13:54:26 10° WSW 13:57:17 19° S 14:00:21 10° SE daylight
07 Aug - 08:29:21 10° SSW 08:33:08 14° SSE 08:36:10 10° SE visible
07 Aug - 10:41:30 10° SW 10:45:55 24° S 10:49:23 10° ESE daylight
07 Aug - 12:54:51 10° WSW 12:58:07 22° S 13:01:16 10° SE daylight
08 Aug - 07:30:11 10° S 07:33:23 12° SSE 07:36:05 10° SE visible
08 Aug - 09:41:22 10° SW 09:46:35 24° S 09:50:23 10° ESE daylight
08 Aug - 11:55:02 10° WSW 11:58:59 26° S 12:02:19 10° SE daylight
08 Aug - 14:09:08 10° SW 14:11:03 13° SSW 14:13:03 10° SSE daylight
09 Aug - 08:41:04 10° SW 08:47:04 22° SSE 08:51:18 10° ESE visible
09 Aug - 10:54:55 10° WSW 10:59:47 29° S 11:03:26 10° ESE daylight
09 Aug - 13:09:03 10° WSW 13:11:53 18° SSW 13:14:36 10° SSE daylight
10 Aug - 07:40:45 10° SSW 07:47:20 20° SSE 07:52:02 10° ESE visible
10 Aug - 09:54:28 10° SW 10:00:29 30° S 10:04:36 10° ESE daylight
10 Aug - 12:08:57 10° WSW 12:12:45 23° SSW 12:15:59 10° SE daylight
